Weather in Kashira

Russia / Moscow Oblast     54°50′04″N   38°09′05″E
temp.,
°C
wind,
m/s
gust,
m/s
humid.,
%
clouds,
%
prec.,
mm/h
press.,
hPa
HPBL,
m
6 may, thu
thu600:00+9ssw6168398 0.0 1009359
03:00+8ssw51385100 0.0 1009271
06:00+8s61384100 0.0 1008291
09:00+12ssw71571100 0.1 1007832
12:00+14ssw91670100 0.3 10071804
15:00+13s10186821 0.9 10061415
18:00+9ssw91783100 0.3 1007870
21:00+8w6108799 1.3 1009593
7 may, fri
fri700:00+6sw41094100 0.0 1010347
03:00+6wsw4994100 0.0 1011300
06:00+5sw399295 0.0 1012305
09:00+9w696312 0.0 1013925
12:00+12wsw57480 0.0 10141665
15:00+14sw584374 0.0 10132290
18:00+13ssw585846 0.0 1013474
21:00+8s41069100 0.0 1014179
8 may, sat
sat800:00+8sse51469100 0.0 1013288
03:00+8sse71761100 0.0 1012496
06:00+8sse81867100 0.0 1009589
09:00+9se81690100 1.4 1007932
12:00+9sse81694100 2.6 1005839
15:00+10s71396100 5.2 1004657
18:00+10sw61190100 1.4 1004735
21:00+6wsw81385100 1.5 1006766
9 may, sun
sun900:00+4wsw71288100 0.0 1007736
03:00+5w71284100 0.0 10101176
06:00+5w51179100 0.0 1012710
09:00+5w6877100 0.0 1014966
12:00+10nw575394 0.0 10161715
15:00+12nnw6846100 0.0 10172177
18:00+10nnw59565 0.0 1020654
21:00+5nw4116613 0.0 1023178
10 may, mon
mon1000:00+4n35750 0.0 102571
03:00+3n33774 0.0 102731
06:00+4n25790 0.0 1029125
09:00+9n45620 0.0 1029516
12:00+13ne45485 0.0 10291464
15:00+14nne45445 0.0 10281279
18:00+14ne35595 0.0 1028275
21:00+8ene33670 0.0 102931